Torna al catalogo

STARLINK-32829

AttivoComunicazioniVLEO
NORAD 63049·PAYLOAD·🇺🇸 United States

Lanciato Feb 18, 2025 da Cape Canaveral Space Force Station

Loading…

Prossimi Passaggi (prossime 24 ore)

TLE

AggiornatoSource: CelesTrak SupGP

Epoca: Sep 14, 2026, 20:38 UTC

1 63049C 25034W   26257.86020833 -.00049547  00000+0 -14641-2 0  2573
2 63049  53.1576 108.4012 0001255  83.2480 278.5462 15.34411339    14

Traccia STARLINK-32829 in tempo reale con AllMySat

Download on the App Store